Regional Weather Roundup
Issued by NWS

Home | Current Version | Previous Version | Text Only | Print | Product List | Glossary Off
Versions: 1 2 3 4 5 6 7 8 9 10 11 12 13 14 15 16 17 18 19 20 21 22 23 24 25 26 27 28 29 30 31 32 33 34 35 36 37 38 39 40 41 42 43 44 45 46 47 48 49 50

000
ASUS43 KBIS 070110
RWRND

NORTH DAKOTA REGIONAL WEATHER ROUNDUP
NATIONAL WEATHER SERVICE BISMARCK ND
700 PM CST FRI MAR 06 2015

NOTE: "FAIR" INDICATES FEW OR NO CLOUDS BELOW 12,000 FEET WITH NO
SIGNIFICANT WEATHER AND/OR OBSTRUCTIONS TO VISIBILITY.


NDZ001>003-009>011-017-070200-
NORTHWEST NORTH DAKOTA

CITY           SKY/WX    TMP DP  RH WIND       PRES   REMARKS
WILLISTON      CLOUDY    43  29  57 W15       30.00S
MINOT          MOCLDY    40  30  67 W21       29.89R
MINOT AFB      PTCLDY    39  34  81 W23       29.87R
$$

NDZ018>021-031>035-040>046-070200-
SOUTHWEST NORTH DAKOTA

CITY           SKY/WX    TMP DP  RH WIND       PRES   REMARKS
BISMARCK       CLOUDY    46  29  51 W12       29.97R
DICKINSON      CLOUDY    45  26  47 NW10      29.98R
GARRISON         N/A     43  30  60 W21G35    29.92F
HETTINGER ARPT MOCLDY    41  21  44 NW5       30.01S
$$

NDZ004>008-012>016-024-026-027-054-070200-
NORTHEAST NORTH DAKOTA

CITY           SKY/WX    TMP DP  RH WIND       PRES   REMARKS
GRAND FORKS    CLOUDY    36  24  62 S9        29.91F
GRND FRKS AFB  CLOUDY    37  22  55 SW12      29.90F
DEVILS LAKE    MOCLDY    34  25  69 SW17      29.84F
$$

NDZ022-023-025-028>030-036>039-047>053-070200-
SOUTHEAST NORTH DAKOTA

CITY           SKY/WX    TMP DP  RH WIND       PRES   REMARKS
FARGO          CLOUDY    36  22  56 S9        29.98F
JAMESTOWN      MOCLDY    33  23  66 S12       29.91F
$$



USA.gov is the U.S. government's official web portal to all federal, state and local government web resources and services.